Tracking 30101 objects as of 14-Dec-2024
HD Live streaming from Space Station
objects crossing your sky now

GSTAR 1

Track GSTAR 1 now!
GSTAR 1 is classified as:


NORAD ID: 15677
Int'l Code: 1985-035A
Perigee: 35,777.8 km
Apogee: 35,809.3 km
Inclination: 14.5 °
Period: 1,436.1 minutes
Semi major axis: 42164 km
RCS: 1.6993 m2 (large)
Launch date: May 8, 1985
Source: United States (US)
Launch site: FRENCH GUIANA (FRGUI)
Your satellite tracking list
Your tracking list is empty




NASA's NSSDC Master Catalog

Two Line Element Set (TLE):
1 15677U 85035A   24348.45337538 -.00000111  00000-0  00000-0 0  9990
2 15677  14.5291 352.9014 0003736 157.0062 350.4685  1.00272560119683
Source of the keplerian elements: AFSPC